Tracking 33744 objects as of 12-Apr-2026
HD Live streaming from Space Station
objects crossing your sky now

STARLINK-31889

Track STARLINK-31889 now!
10-day predictions
STARLINK-31889 is classified as:


NORAD ID: 59847
Int'l Code: 2024-097N
Perigee: 489.4 km
Apogee: 491.1 km
Inclination: 43.0 °
Period: 94.3 minutes
Semi major axis: 6861 km
RCS: Unknown
Launch date: May 23, 2024
Source: United States (US)
Launch site: AIR FORCE EASTERN TEST RANGE (AFETR)
Your satellite tracking list
Your tracking list is empty




NASA's NSSDC Master Catalog

Two Line Element Set (TLE):
1 59847U 24097N   26102.30975080 -.00003124  00000-0 -10405-3 0  9993
2 59847  43.0013  84.9115 0001236 277.4524  82.6187 15.27575188107051
Source of the keplerian elements: AFSPC